NSZ4545 LROP-ESSA

Flight info

Callsign NSZ4545
Flight time 2h 26m
Altitude 36000
Route BUKEL DCT EDETA DCT REBLA DCT KENIN DCT KOTEK DCT OVBOR N133 POLON DCT PENOR DCT TESPO DCT ARMOD/N0453F370 Z228 NILUG
Aircraft B738/M-SDE2E3FGHIRWXY/LB1

Departure

Time 2026-05-07 18:31
Airport Bucharest Henri Coandă International Airport (LROP)

Arrival

Time 2026-05-07 20:58
Airport Stockholm-Arlanda Airport (ESSA)
Time Latitude Longitude Altitude Speed Heading
2026-05-07 17:49 44.57011 26.08026 309 ft 0 kts 353°
2026-05-07 18:21 44.57002 26.08027 321 ft 5 kts 353°
2026-05-07 18:21 44.56968 26.08033 320 ft 5 kts 351°
2026-05-07 18:22 44.56944 26.08040 318 ft 2 kts 335°
2026-05-07 18:22 44.56938 26.08045 319 ft 2 kts 313°
2026-05-07 18:22 44.56932 26.08064 321 ft 2 kts 269°
2026-05-07 18:22 44.56932 26.08077 320 ft 0 kts 265°
2026-05-07 18:26 44.56932 26.08076 320 ft 1 kts 265°
2026-05-07 18:26 44.56930 26.08045 321 ft 5 kts 265°
2026-05-07 18:27 44.56910 26.07994 320 ft 6 kts 214°
2026-05-07 18:27 44.56867 26.07983 321 ft 6 kts 177°
2026-05-07 18:27 44.56823 26.07990 320 ft 6 kts 171°
2026-05-07 18:27 44.56793 26.07998 321 ft 6 kts 162°
2026-05-07 18:28 44.56745 26.07971 321 ft 6 kts 244°
2026-05-07 18:28 44.56736 26.07912 321 ft 7 kts 257°
2026-05-07 18:28 44.56720 26.07830 321 ft 9 kts 254°
2026-05-07 18:28 44.56703 26.07742 321 ft 9 kts 253°
2026-05-07 18:29 44.56670 26.07669 322 ft 9 kts 212°
2026-05-07 18:29 44.56619 26.07667 321 ft 7 kts 171°
2026-05-07 18:29 44.56587 26.07672 321 ft 7 kts 174°
2026-05-07 18:29 44.56540 26.07680 319 ft 7 kts 173°
2026-05-07 18:30 44.56479 26.07699 320 ft 7 kts 144°
2026-05-07 18:30 44.56470 26.07746 321 ft 5 kts 85°
2026-05-07 18:30 44.56472 26.07780 321 ft 5 kts 84°
2026-05-07 18:30 44.56495 26.08088 322 ft 65 kts 84°
2026-05-07 18:31 44.56565 26.09006 318 ft 122 kts 83°
2026-05-07 18:31 44.56669 26.10409 376 ft 162 kts 84°
2026-05-07 18:31 44.56774 26.11901 1149 ft 150 kts 85°
2026-05-07 18:31 44.56885 26.13487 1398 ft 174 kts 86°
2026-05-07 18:32 44.57006 26.15186 2034 ft 177 kts 86°
2026-05-07 18:32 44.57140 26.17043 2388 ft 207 kts 85°
2026-05-07 18:32 44.57297 26.19173 2639 ft 232 kts 85°
2026-05-07 18:32 44.57473 26.21495 3052 ft 244 kts 85°
2026-05-07 18:33 44.57699 26.23885 3576 ft 251 kts 75°
2026-05-07 18:33 44.58653 26.25910 4154 ft 254 kts 36°
2026-05-07 18:33 44.60271 26.26815 4787 ft 253 kts
2026-05-07 18:33 44.61985 26.26495 5373 ft 250 kts 336°
2026-05-07 18:34 44.63453 26.25232 6009 ft 247 kts 320°
2026-05-07 18:34 44.64786 26.23701 6605 ft 249 kts 317°
2026-05-07 18:34 44.66115 26.22111 7146 ft 254 kts 316°
2026-05-07 18:34 44.67511 26.20430 7416 ft 272 kts 317°
2026-05-07 18:35 44.68976 26.18674 8068 ft 280 kts 317°
2026-05-07 18:35 44.70462 26.16904 8931 ft 281 kts 317°
2026-05-07 18:35 44.71965 26.15120 9752 ft 284 kts 317°
2026-05-07 18:35 44.73492 26.13309 10381 ft 294 kts 317°
2026-05-07 18:36 44.75117 26.11381 10566 ft 318 kts 317°
2026-05-07 18:36 44.76878 26.09294 10755 ft 342 kts 317°
2026-05-07 18:36 44.78745 26.07085 11091 ft 357 kts 317°
2026-05-07 18:36 44.80646 26.04840 11686 ft 364 kts 318°
2026-05-07 18:37 44.82599 26.02534 12381 ft 367 kts 318°
2026-05-07 18:37 44.84570 26.00205 13064 ft 372 kts 318°
2026-05-07 18:37 44.86567 25.97841 13725 ft 377 kts 318°
2026-05-07 18:37 44.88586 25.95449 14337 ft 381 kts 318°
2026-05-07 18:38 44.90623 25.93031 14999 ft 383 kts 318°
2026-05-07 18:38 44.92664 25.90607 15677 ft 385 kts 318°
2026-05-07 18:38 44.94717 25.88166 16318 ft 388 kts 318°
2026-05-07 18:38 44.96791 25.85697 16944 ft 391 kts 318°
2026-05-07 18:39 44.98874 25.83214 17555 ft 394 kts 318°
2026-05-07 18:39 45.00972 25.80712 18179 ft 396 kts 318°
2026-05-07 18:39 45.03087 25.78187 18728 ft 399 kts 318°
2026-05-07 18:39 45.05219 25.75640 19253 ft 402 kts 318°
2026-05-07 18:40 45.07361 25.73078 19763 ft 405 kts 318°
2026-05-07 18:40 45.09539 25.70519 20271 ft 409 kts 319°
2026-05-07 18:40 45.11766 25.67982 20775 ft 412 kts 320°
2026-05-07 18:40 45.14016 25.65448 21266 ft 415 kts 320°
2026-05-07 18:41 45.16283 25.62899 21731 ft 418 kts 320°
2026-05-07 18:41 45.18539 25.60355 22199 ft 421 kts 320°
2026-05-07 18:41 45.20841 25.57749 22653 ft 424 kts 320°
2026-05-07 18:41 45.23153 25.55124 23093 ft 427 kts 320°
2026-05-07 18:42 45.25481 25.52474 23524 ft 430 kts 320°
2026-05-07 18:42 45.27827 25.49798 23892 ft 433 kts 320°
2026-05-07 18:42 45.30175 25.47115 24255 ft 435 kts 320°
2026-05-07 18:42 45.32543 25.44409 24645 ft 437 kts 319°
2026-05-07 18:43 45.34912 25.41695 25029 ft 439 kts 319°
2026-05-07 18:43 45.37294 25.38965 25384 ft 441 kts 319°
2026-05-07 18:43 45.39690 25.36216 25741 ft 443 kts 319°
2026-05-07 18:43 45.42098 25.33449 26086 ft 445 kts 319°
2026-05-07 18:44 45.44516 25.30668 26413 ft 448 kts 319°
2026-05-07 18:44 45.46942 25.27874 26739 ft 450 kts 319°
2026-05-07 18:44 45.49351 25.25097 27067 ft 451 kts 319°
2026-05-07 18:44 45.51797 25.22275 27379 ft 453 kts 319°
2026-05-07 18:45 45.54258 25.19432 27678 ft 456 kts 318°
2026-05-07 18:45 45.56730 25.16573 27980 ft 458 kts 318°
2026-05-07 18:45 45.59213 25.13697 28298 ft 459 kts 318°
2026-05-07 18:45 45.61695 25.10819 28601 ft 461 kts 318°
2026-05-07 18:46 45.64196 25.07916 28891 ft 463 kts 318°
2026-05-07 18:46 45.66704 25.05002 29189 ft 465 kts 318°
2026-05-07 18:46 45.69215 25.02080 29517 ft 466 kts 318°
2026-05-07 18:46 45.71722 24.99161 29938 ft 464 kts 318°
2026-05-07 18:47 45.74221 24.96247 30339 ft 462 kts 317°
2026-05-07 18:47 45.76711 24.93341 30678 ft 461 kts 317°
2026-05-07 18:47 45.79193 24.90440 31004 ft 460 kts 317°
2026-05-07 18:47 45.81672 24.87538 31339 ft 459 kts 317°
2026-05-07 18:48 45.84112 24.84681 31670 ft 457 kts 317°
2026-05-07 18:48 45.86568 24.81799 32007 ft 456 kts 317°
2026-05-07 18:48 45.89023 24.78916 32326 ft 455 kts 317°
2026-05-07 18:48 45.91474 24.76033 32653 ft 454 kts 316°
2026-05-07 18:49 45.93918 24.73156 32976 ft 453 kts 316°
2026-05-07 18:49 45.96354 24.70284 33300 ft 452 kts 316°
2026-05-07 18:49 45.98781 24.67419 33626 ft 450 kts 316°
2026-05-07 18:49 46.01198 24.64563 33931 ft 449 kts 316°
2026-05-07 18:50 46.03610 24.61709 34169 ft 449 kts 316°
2026-05-07 18:50 46.06020 24.58856 34410 ft 448 kts 316°
2026-05-07 18:50 46.08426 24.56002 34661 ft 447 kts 316°
2026-05-07 18:50 46.10822 24.53158 34905 ft 447 kts 316°
2026-05-07 18:51 46.13221 24.50305 35113 ft 447 kts 316°
2026-05-07 18:51 46.15614 24.47457 35334 ft 446 kts 316°
2026-05-07 18:51 46.17972 24.44648 35560 ft 446 kts 316°
2026-05-07 18:51 46.20361 24.41799 35789 ft 445 kts 316°
2026-05-07 18:52 46.22748 24.38949 36003 ft 445 kts 316°
2026-05-07 18:52 46.25130 24.36102 36224 ft 444 kts 316°
2026-05-07 18:52 46.27506 24.33257 36444 ft 444 kts 316°
2026-05-07 18:52 46.29884 24.30408 36639 ft 444 kts 316°
2026-05-07 18:53 46.32260 24.27557 36822 ft 443 kts 316°
2026-05-07 18:53 46.34633 24.24707 37006 ft 443 kts 316°
2026-05-07 18:53 46.37009 24.21849 37004 ft 446 kts 316°
2026-05-07 18:54 46.41778 24.16104 37015 ft 444 kts 316°
2026-05-07 18:54 46.46510 24.10393 37019 ft 441 kts 316°
2026-05-07 18:55 46.51212 24.04701 37020 ft 439 kts 316°
2026-05-07 18:55 46.55895 23.99020 37018 ft 438 kts 316°
2026-05-07 18:56 46.60536 23.93375 37024 ft 438 kts 316°
2026-05-07 18:56 46.65205 23.87683 37026 ft 439 kts 316°
2026-05-07 18:57 46.69896 23.81952 37025 ft 441 kts 315°
2026-05-07 18:57 46.74603 23.76189 37029 ft 443 kts 315°
2026-05-07 18:58 46.79432 23.70552 37026 ft 447 kts 319°
2026-05-07 18:58 46.84442 23.65128 37028 ft 449 kts 319°
2026-05-07 18:59 46.89477 23.59692 37024 ft 450 kts 319°
2026-05-07 18:59 46.94505 23.54199 37026 ft 451 kts 319°
2026-05-07 19:00 46.99519 23.48681 37020 ft 451 kts 319°
2026-05-07 19:00 47.04491 23.43186 37027 ft 450 kts 319°
2026-05-07 19:01 47.09483 23.37657 37019 ft 449 kts 319°
2026-05-07 19:01 47.14467 23.32124 37024 ft 448 kts 318°
2026-05-07 19:02 47.19433 23.26598 37017 ft 447 kts 318°
2026-05-07 19:02 47.24386 23.21074 37026 ft 446 kts 318°
2026-05-07 19:03 47.29319 23.15559 37026 ft 445 kts 318°
2026-05-07 19:03 47.34249 23.10033 37023 ft 444 kts 318°
2026-05-07 19:04 47.39142 23.04536 37020 ft 445 kts 318°
2026-05-07 19:04 47.44063 22.98993 37024 ft 445 kts 318°
2026-05-07 19:05 47.48990 22.93432 37021 ft 446 kts 318°
2026-05-07 19:05 47.53926 22.87845 37020 ft 447 kts 318°
2026-05-07 19:06 47.58858 22.82251 37026 ft 447 kts 318°
2026-05-07 19:06 47.66284 22.73801 37024 ft 449 kts 318°
2026-05-07 19:07 47.71241 22.68143 37023 ft 450 kts 318°
2026-05-07 19:07 47.76204 22.62465 37020 ft 451 kts 318°
2026-05-07 19:08 47.81176 22.56763 37016 ft 451 kts 318°
2026-05-07 19:08 47.86147 22.51047 37013 ft 452 kts 318°
2026-05-07 19:09 47.91130 22.45303 37005 ft 453 kts 318°
2026-05-07 19:09 47.96108 22.39551 37008 ft 453 kts 317°
2026-05-07 19:10 48.01056 22.33818 37007 ft 453 kts 317°
2026-05-07 19:10 48.06042 22.28027 37026 ft 455 kts 317°
2026-05-07 19:11 48.08546 22.25113 37193 ft 455 kts 317°
2026-05-07 19:11 48.11038 22.22210 37436 ft 453 kts 317°
2026-05-07 19:11 48.13521 22.19315 37696 ft 451 kts 317°
2026-05-07 19:11 48.15995 22.16427 37915 ft 449 kts 317°
2026-05-07 19:12 48.20935 22.10642 37995 ft 453 kts 317°
2026-05-07 19:12 48.25898 22.04819 37992 ft 453 kts 317°
2026-05-07 19:13 48.30858 21.98987 37996 ft 451 kts 317°
2026-05-07 19:13 48.35829 21.93218 37986 ft 453 kts 321°
2026-05-07 19:14 48.41419 21.88817 37993 ft 458 kts 331°
2026-05-07 19:14 48.47237 21.84869 37989 ft 458 kts 331°
2026-05-07 19:15 48.53044 21.80900 37985 ft 459 kts 331°
2026-05-07 19:15 48.57873 21.77540 37986 ft 459 kts 330°
2026-05-07 19:16 48.63671 21.73463 37987 ft 460 kts 330°
2026-05-07 19:16 48.69483 21.69357 37990 ft 461 kts 330°
2026-05-07 19:17 48.75308 21.65233 37990 ft 462 kts 330°
2026-05-07 19:17 48.81149 21.61088 37969 ft 463 kts 330°
2026-05-07 19:18 48.86987 21.56937 37981 ft 464 kts 330°
2026-05-07 19:18 48.92841 21.52764 37977 ft 465 kts 330°
2026-05-07 19:19 48.98698 21.48576 37983 ft 465 kts 330°
2026-05-07 19:19 49.04570 21.44367 37978 ft 467 kts 330°
2026-05-07 19:20 49.10415 21.40167 37977 ft 468 kts 330°
2026-05-07 19:20 49.16340 21.35897 37974 ft 468 kts 330°
2026-05-07 19:21 49.22253 21.31666 37975 ft 470 kts 333°
2026-05-07 19:21 49.28353 21.28108 37966 ft 473 kts 336°
2026-05-07 19:22 49.34581 21.24788 37967 ft 473 kts 336°
2026-05-07 19:22 49.40787 21.21428 37965 ft 471 kts 336°
2026-05-07 19:23 49.46946 21.18011 37969 ft 471 kts 335°
2026-05-07 19:23 49.53107 21.14549 37978 ft 470 kts 335°
2026-05-07 19:24 49.59255 21.11082 37975 ft 471 kts 335°
2026-05-07 19:24 49.65409 21.07604 37975 ft 470 kts 335°
2026-05-07 19:25 49.71519 21.04144 37972 ft 471 kts 335°
2026-05-07 19:25 49.77677 21.00648 37971 ft 471 kts 335°
2026-05-07 19:26 49.83827 20.97147 37967 ft 471 kts 335°
2026-05-07 19:26 49.89990 20.93629 37971 ft 471 kts 335°
2026-05-07 19:27 49.96150 20.90103 37966 ft 472 kts 335°
2026-05-07 19:27 50.02314 20.86566 37969 ft 472 kts 335°
2026-05-07 19:28 50.08480 20.83018 37968 ft 473 kts 335°
2026-05-07 19:28 50.14622 20.79473 37965 ft 473 kts 335°
2026-05-07 19:29 50.20798 20.75899 37965 ft 473 kts 335°
2026-05-07 19:29 50.26980 20.72311 37965 ft 474 kts 335°
2026-05-07 19:30 50.33177 20.68706 37970 ft 475 kts 335°
2026-05-07 19:30 50.39367 20.65094 37969 ft 475 kts 335°
2026-05-07 19:31 50.45566 20.61466 37972 ft 476 kts 335°
2026-05-07 19:31 50.51770 20.57826 37970 ft 476 kts 335°
2026-05-07 19:32 50.57991 20.54165 37968 ft 477 kts 335°
2026-05-07 19:32 50.64209 20.50496 37967 ft 477 kts 335°
2026-05-07 19:33 50.70382 20.46844 37974 ft 477 kts 335°
2026-05-07 19:33 50.76603 20.43152 37970 ft 477 kts 335°
2026-05-07 19:34 50.82824 20.39450 37972 ft 477 kts 335°
2026-05-07 19:34 50.89030 20.35746 37976 ft 476 kts 335°
2026-05-07 19:35 50.95224 20.32039 37977 ft 475 kts 335°
2026-05-07 19:35 51.01403 20.28330 37979 ft 474 kts 335°
2026-05-07 19:36 51.07569 20.24618 37979 ft 473 kts 335°
2026-05-07 19:36 51.13724 20.20903 37987 ft 472 kts 335°
2026-05-07 19:37 51.19816 20.17215 37988 ft 471 kts 334°
2026-05-07 19:37 51.25940 20.13497 37989 ft 470 kts 334°
2026-05-07 19:38 51.32047 20.09778 37988 ft 469 kts 334°
2026-05-07 19:38 51.38142 20.06056 37995 ft 468 kts 334°
2026-05-07 19:39 51.44224 20.02332 37995 ft 467 kts 334°
2026-05-07 19:39 51.50293 19.98605 38001 ft 467 kts 335°
2026-05-07 19:40 51.56365 19.94865 38005 ft 467 kts 335°
2026-05-07 19:40 51.62388 19.91145 38012 ft 467 kts 335°
2026-05-07 19:41 51.68493 19.87363 38016 ft 467 kts 335°
2026-05-07 19:41 51.74561 19.83593 38020 ft 468 kts 335°
2026-05-07 19:42 51.80596 19.79834 38016 ft 468 kts 335°
2026-05-07 19:42 51.86691 19.76025 38020 ft 469 kts 335°
2026-05-07 19:43 51.92788 19.72205 38020 ft 470 kts 335°
2026-05-07 19:43 51.98891 19.68370 38021 ft 471 kts 335°
2026-05-07 19:44 52.05007 19.64515 38026 ft 472 kts 335°
2026-05-07 19:44 52.11099 19.60664 38031 ft 472 kts 335°
2026-05-07 19:45 52.17231 19.56776 38034 ft 473 kts 335°
2026-05-07 19:45 52.23369 19.52873 38039 ft 473 kts 335°
2026-05-07 19:46 52.29514 19.48954 38032 ft 474 kts 335°
2026-05-07 19:46 52.35663 19.45021 38028 ft 474 kts 335°
2026-05-07 19:47 52.41806 19.41080 38033 ft 474 kts 335°
2026-05-07 19:47 52.47907 19.37154 38036 ft 474 kts 335°
2026-05-07 19:48 52.54079 19.33170 38043 ft 473 kts 335°
2026-05-07 19:48 52.60163 19.29231 38040 ft 473 kts 335°
2026-05-07 19:49 52.66281 19.25259 38050 ft 472 kts 335°
2026-05-07 19:49 52.72386 19.21282 38051 ft 472 kts 335°
2026-05-07 19:50 52.78530 19.17266 38055 ft 477 kts 335°
2026-05-07 19:50 52.84734 19.13198 38062 ft 482 kts 335°
2026-05-07 19:51 52.90985 19.09090 38064 ft 485 kts 335°
2026-05-07 19:51 52.97235 19.04970 38064 ft 487 kts 335°
2026-05-07 19:52 53.03574 19.00778 38066 ft 488 kts 335°
2026-05-07 19:52 53.09838 18.96622 38068 ft 488 kts 335°
2026-05-07 19:53 53.16152 18.92420 38071 ft 487 kts 335°
2026-05-07 19:53 53.22451 18.88214 38074 ft 486 kts 335°
2026-05-07 19:54 53.28729 18.84009 38075 ft 485 kts 335°
2026-05-07 19:54 53.34986 18.79804 38081 ft 484 kts 335°
2026-05-07 19:55 53.41184 18.75626 38083 ft 483 kts 335°
2026-05-07 19:55 53.47406 18.71418 38089 ft 482 kts 335°
2026-05-07 19:56 53.53624 18.67200 38088 ft 481 kts 335°
2026-05-07 19:56 53.59818 18.62984 38088 ft 480 kts 335°
2026-05-07 19:57 53.66002 18.58762 38090 ft 479 kts 335°
2026-05-07 19:57 53.72174 18.54535 38096 ft 478 kts 335°
2026-05-07 19:58 53.78339 18.50298 38090 ft 478 kts 335°
2026-05-07 19:58 53.84498 18.46053 38092 ft 478 kts 335°
2026-05-07 19:59 53.89617 18.42515 38091 ft 477 kts 335°
2026-05-07 19:59 53.96772 18.37553 38093 ft 477 kts 335°
2026-05-07 20:00 54.01919 18.33971 38110 ft 477 kts 335°
2026-05-07 20:00 54.08065 18.29683 38104 ft 477 kts 335°
2026-05-07 20:01 54.14169 18.25410 38105 ft 477 kts 335°
2026-05-07 20:01 54.20313 18.21096 38112 ft 477 kts 335°
2026-05-07 20:02 54.26451 18.16771 38106 ft 477 kts 335°
2026-05-07 20:02 54.32584 18.12437 38110 ft 476 kts 335°
2026-05-07 20:03 54.38707 18.08095 38113 ft 476 kts 335°
2026-05-07 20:03 54.44829 18.03740 38115 ft 476 kts 335°
2026-05-07 20:04 54.50908 17.99402 38121 ft 476 kts 335°
2026-05-07 20:04 54.57018 17.95027 38126 ft 475 kts 335°
2026-05-07 20:05 54.63126 17.90639 38130 ft 475 kts 335°
2026-05-07 20:05 54.69234 17.86237 38133 ft 475 kts 335°
2026-05-07 20:06 54.75345 17.81819 38133 ft 475 kts 335°
2026-05-07 20:06 54.81410 17.77419 38132 ft 475 kts 335°
2026-05-07 20:07 54.87506 17.72982 38129 ft 475 kts 335°
2026-05-07 20:07 54.93601 17.68532 38134 ft 475 kts 335°
2026-05-07 20:08 54.99688 17.64072 38140 ft 474 kts 335°
2026-05-07 20:08 55.05769 17.59603 38135 ft 474 kts 335°
2026-05-07 20:09 55.11854 17.55115 38141 ft 474 kts 335°
2026-05-07 20:10 55.20916 17.48404 38143 ft 473 kts 335°
2026-05-07 20:10 55.26986 17.43890 38147 ft 473 kts 335°
2026-05-07 20:11 55.33043 17.39371 38147 ft 473 kts 335°
2026-05-07 20:11 55.39091 17.34844 38146 ft 472 kts 335°
2026-05-07 20:12 55.45135 17.30304 38152 ft 472 kts 335°
2026-05-07 20:12 55.51166 17.25758 38154 ft 471 kts 334°
2026-05-07 20:13 55.57190 17.21204 38153 ft 471 kts 334°
2026-05-07 20:13 55.63308 17.17278 38156 ft 473 kts 346°
2026-05-07 20:14 55.69871 17.16421 38168 ft 476 kts
2026-05-07 20:14 55.76485 17.17151 38159 ft 476 kts
2026-05-07 20:15 55.83107 17.17925 38161 ft 476 kts
2026-05-07 20:15 55.89726 17.18602 38163 ft 476 kts
2026-05-07 20:16 55.96335 17.19234 38164 ft 476 kts
2026-05-07 20:16 56.02945 17.19864 38167 ft 475 kts
2026-05-07 20:17 56.09515 17.20496 38165 ft 475 kts
2026-05-07 20:17 56.16121 17.21137 38166 ft 475 kts
2026-05-07 20:18 56.22725 17.21780 38168 ft 474 kts
2026-05-07 20:18 56.29320 17.22424 38165 ft 474 kts
2026-05-07 20:19 56.35904 17.23069 38170 ft 474 kts
2026-05-07 20:19 56.42479 17.23714 38169 ft 473 kts
2026-05-07 20:20 56.49060 17.24362 38171 ft 473 kts
2026-05-07 20:20 56.55585 17.25008 38172 ft 473 kts
2026-05-07 20:21 56.62154 17.25660 38175 ft 473 kts
2026-05-07 20:21 56.68721 17.26314 38178 ft 472 kts
2026-05-07 20:22 56.75282 17.26969 38173 ft 472 kts
2026-05-07 20:22 56.81852 17.27628 38179 ft 472 kts
2026-05-07 20:23 56.88414 17.28289 38180 ft 472 kts
2026-05-07 20:23 56.94973 17.28951 38177 ft 472 kts
2026-05-07 20:24 57.01526 17.29615 38183 ft 472 kts
2026-05-07 20:24 57.08040 17.30278 38178 ft 471 kts
2026-05-07 20:25 57.14592 17.30946 38184 ft 471 kts
2026-05-07 20:25 57.21135 17.31617 38181 ft 471 kts
2026-05-07 20:26 57.27679 17.32289 38179 ft 470 kts
2026-05-07 20:26 57.34211 17.32963 38180 ft 470 kts
2026-05-07 20:27 57.40701 17.33635 38077 ft 471 kts
2026-05-07 20:27 57.43981 17.33975 37780 ft 472 kts
2026-05-07 20:27 57.47247 17.34315 37512 ft 469 kts
2026-05-07 20:27 57.50496 17.34734 37237 ft 465 kts
2026-05-07 20:28 57.53683 17.35727 36982 ft 465 kts
2026-05-07 20:28 57.56850 17.36975 36727 ft 464 kts 10°
2026-05-07 20:28 57.59995 17.38301 36473 ft 463 kts 10°
2026-05-07 20:28 57.63142 17.39642 36218 ft 462 kts 10°
2026-05-07 20:29 57.66279 17.40961 35975 ft 461 kts 10°
2026-05-07 20:29 57.69406 17.42251 35727 ft 460 kts
2026-05-07 20:29 57.72484 17.43502 35488 ft 459 kts
2026-05-07 20:29 57.75605 17.44758 35246 ft 458 kts
2026-05-07 20:30 57.78709 17.46002 35004 ft 456 kts
2026-05-07 20:30 57.81853 17.47261 34766 ft 455 kts
2026-05-07 20:30 57.84917 17.48489 34388 ft 457 kts
2026-05-07 20:30 57.88036 17.49741 33624 ft 458 kts
2026-05-07 20:31 57.91141 17.50992 32910 ft 456 kts
2026-05-07 20:31 57.94249 17.52247 32364 ft 457 kts
2026-05-07 20:31 57.97363 17.53507 31840 ft 459 kts
2026-05-07 20:31 58.00497 17.54776 31325 ft 461 kts
2026-05-07 20:32 58.03643 17.56054 30819 ft 463 kts
2026-05-07 20:32 58.06805 17.57340 30311 ft 464 kts
2026-05-07 20:32 58.09966 17.58629 29718 ft 466 kts
2026-05-07 20:32 58.13141 17.59925 29163 ft 467 kts
2026-05-07 20:33 58.16321 17.61227 28622 ft 468 kts
2026-05-07 20:33 58.19506 17.62533 28081 ft 469 kts
2026-05-07 20:33 58.22703 17.63846 27528 ft 471 kts
2026-05-07 20:33 58.25915 17.65167 26975 ft 473 kts
2026-05-07 20:34 58.29138 17.66495 26424 ft 475 kts
2026-05-07 20:34 58.32374 17.67831 25872 ft 477 kts
2026-05-07 20:34 58.35587 17.69160 25316 ft 478 kts
2026-05-07 20:34 58.38842 17.70510 24771 ft 479 kts
2026-05-07 20:35 58.42052 17.71849 24450 ft 463 kts
2026-05-07 20:35 58.45137 17.73143 24345 ft 444 kts
2026-05-07 20:35 58.48094 17.74385 24242 ft 426 kts
2026-05-07 20:35 58.50935 17.75576 24154 ft 410 kts
2026-05-07 20:36 58.53677 17.76724 24010 ft 398 kts
2026-05-07 20:36 58.56363 17.77845 23574 ft 394 kts
2026-05-07 20:36 58.59040 17.78959 23026 ft 393 kts
2026-05-07 20:36 58.61702 17.80070 22492 ft 391 kts
2026-05-07 20:37 58.64352 17.81181 21959 ft 388 kts
2026-05-07 20:37 58.66982 17.82288 21438 ft 386 kts
2026-05-07 20:37 58.69571 17.83381 20930 ft 383 kts
2026-05-07 20:37 58.72171 17.84480 20427 ft 381 kts
2026-05-07 20:38 58.74755 17.85574 19929 ft 379 kts
2026-05-07 20:38 58.77325 17.86663 19441 ft 377 kts
2026-05-07 20:38 58.79875 17.87746 18952 ft 374 kts
2026-05-07 20:38 58.82411 17.88829 18481 ft 372 kts
2026-05-07 20:39 58.84929 17.89948 17935 ft 370 kts
2026-05-07 20:39 58.87436 17.91083 17398 ft 368 kts
2026-05-07 20:39 58.89927 17.92220 16872 ft 366 kts
2026-05-07 20:39 58.92404 17.93350 16348 ft 364 kts
2026-05-07 20:40 58.94862 17.94471 15835 ft 362 kts
2026-05-07 20:40 58.97277 17.95572 15335 ft 360 kts
2026-05-07 20:40 58.99740 17.96695 14835 ft 358 kts
2026-05-07 20:40 59.02153 17.97796 14351 ft 355 kts 10°
2026-05-07 20:41 59.04555 17.98893 13838 ft 353 kts 10°
2026-05-07 20:41 59.06941 17.99983 13307 ft 351 kts 10°
2026-05-07 20:41 59.09311 18.01068 12778 ft 349 kts 10°
2026-05-07 20:41 59.11633 18.02133 12260 ft 346 kts 10°
2026-05-07 20:42 59.13973 18.03207 11745 ft 344 kts 10°
2026-05-07 20:42 59.16295 18.04275 11239 ft 342 kts 11°
2026-05-07 20:42 59.18601 18.05336 10738 ft 339 kts 11°
2026-05-07 20:42 59.20892 18.06392 10324 ft 335 kts 11°
2026-05-07 20:43 59.23108 18.07417 10233 ft 321 kts 11°
2026-05-07 20:43 59.25245 18.08408 10217 ft 313 kts 11°
2026-05-07 20:43 59.27366 18.09388 10218 ft 314 kts 11°
2026-05-07 20:43 59.29498 18.10374 10217 ft 314 kts 11°
2026-05-07 20:44 59.31620 18.11357 10213 ft 314 kts 11°
2026-05-07 20:44 59.32340 18.11691 10214 ft 314 kts 11°
2026-05-07 20:44 59.33864 18.12398 10213 ft 314 kts 11°
2026-05-07 20:44 59.35990 18.13387 10210 ft 314 kts 11°
2026-05-07 20:45 59.38111 18.14374 10213 ft 313 kts 11°
2026-05-07 20:45 59.40234 18.15365 10211 ft 313 kts 11°
2026-05-07 20:45 59.42351 18.16354 10212 ft 313 kts 11°
2026-05-07 20:45 59.44452 18.17336 10207 ft 314 kts 11°
2026-05-07 20:46 59.46582 18.18333 10204 ft 314 kts 11°
2026-05-07 20:46 59.48710 18.19331 10205 ft 314 kts 11°
2026-05-07 20:46 59.50835 18.20323 10204 ft 314 kts 10°
2026-05-07 20:46 59.52946 18.21065 10175 ft 303 kts
2026-05-07 20:47 59.54988 18.21586 10165 ft 286 kts
2026-05-07 20:47 59.56903 18.22044 10162 ft 268 kts
2026-05-07 20:47 59.58736 18.22488 9917 ft 264 kts
2026-05-07 20:47 59.60557 18.22939 9597 ft 263 kts
2026-05-07 20:48 59.62372 18.23401 9289 ft 262 kts
2026-05-07 20:48 59.64156 18.23863 8994 ft 261 kts
2026-05-07 20:48 59.65948 18.24334 8695 ft 260 kts
2026-05-07 20:48 59.67742 18.24807 8392 ft 259 kts
2026-05-07 20:49 59.69521 18.25278 8105 ft 257 kts
2026-05-07 20:49 59.71298 18.25615 7798 ft 256 kts 357°
2026-05-07 20:49 59.72474 18.25462 7602 ft 255 kts 353°
2026-05-07 20:49 59.74232 18.25044 7306 ft 254 kts 352°
2026-05-07 20:50 59.75982 18.24620 7025 ft 253 kts 352°
2026-05-07 20:50 59.77731 18.24229 6730 ft 253 kts 353°
2026-05-07 20:50 59.79477 18.23860 6451 ft 252 kts 353°
2026-05-07 20:50 59.81223 18.23501 6134 ft 252 kts 354°
2026-05-07 20:51 59.82958 18.23034 5844 ft 251 kts 342°
2026-05-07 20:51 59.84417 18.21298 5679 ft 244 kts 314°
2026-05-07 20:51 59.85350 18.18550 5572 ft 235 kts 296°
2026-05-07 20:51 59.85993 18.15641 5291 ft 230 kts 293°
2026-05-07 20:52 59.86597 18.12683 4756 ft 232 kts 292°
2026-05-07 20:52 59.87203 18.09710 4227 ft 231 kts 289°
2026-05-07 20:52 59.87345 18.06568 3680 ft 230 kts 257°
2026-05-07 20:52 59.86635 18.03785 3169 ft 226 kts 227°
2026-05-07 20:53 59.85498 18.01653 2691 ft 223 kts 219°
2026-05-07 20:53 59.84345 17.99758 2546 ft 205 kts 216°
2026-05-07 20:53 59.83102 17.98677 2547 ft 190 kts 194°
2026-05-07 20:53 59.81849 17.97995 2523 ft 182 kts 194°
2026-05-07 20:54 59.80654 17.97467 2503 ft 171 kts 191°
2026-05-07 20:54 59.79492 17.97027 2516 ft 170 kts 190°
2026-05-07 20:54 59.78347 17.96610 2483 ft 169 kts 190°
2026-05-07 20:54 59.77191 17.96192 2276 ft 168 kts 190°
2026-05-07 20:55 59.76044 17.95777 2046 ft 166 kts 190°
2026-05-07 20:55 59.74920 17.95370 1828 ft 163 kts 190°
2026-05-07 20:55 59.73850 17.94983 1598 ft 150 kts 190°
2026-05-07 20:55 59.72862 17.94625 1417 ft 141 kts 190°
2026-05-07 20:56 59.71914 17.94282 1245 ft 139 kts 189°
2026-05-07 20:56 59.70958 17.93937 1068 ft 140 kts 190°
2026-05-07 20:56 59.69999 17.93589 867 ft 140 kts 189°
2026-05-07 20:56 59.69037 17.93241 690 ft 141 kts 189°
2026-05-07 20:57 59.68075 17.92902 489 ft 143 kts 188°
2026-05-07 20:57 59.67096 17.92531 254 ft 139 kts 189°
2026-05-07 20:57 59.66160 17.92201 117 ft 132 kts 188°
2026-05-07 20:57 59.65436 17.91939 106 ft 55 kts 191°
2026-05-07 20:58 59.65177 17.91911 103 ft 24 kts 169°
2026-05-07 20:58 59.65122 17.91937 102 ft 2 kts 164°
2026-05-07 20:58 59.65104 17.91948 103 ft 3 kts 160°
2026-05-07 20:58 59.65082 17.91965 103 ft 4 kts 158°
2026-05-07 20:59 59.65029 17.92009 103 ft 11 kts 153°
2026-05-07 20:59 59.65011 17.92087 102 ft 6 kts 81°
2026-05-07 20:59 59.65038 17.92150 105 ft 6 kts 30°
2026-05-07 20:59 59.65081 17.92174 106 ft 7 kts
2026-05-07 21:00 59.65136 17.92194 106 ft 9 kts 12°
2026-05-07 21:00 59.65194 17.92216 106 ft 8 kts
2026-05-07 21:00 59.65254 17.92236 106 ft 10 kts 10°
2026-05-07 21:00 59.65337 17.92267 104 ft 14 kts 10°
2026-05-07 21:01 59.65424 17.92337 103 ft 14 kts 44°
2026-05-07 21:01 59.65479 17.92440 104 ft 10 kts 45°
2026-05-07 21:01 59.65519 17.92556 104 ft 10 kts 64°
2026-05-07 21:01 59.65539 17.92686 106 ft 10 kts 76°
2026-05-07 21:02 59.65556 17.92822 107 ft 10 kts 76°
2026-05-07 21:02 59.65573 17.92957 108 ft 10 kts 76°
2026-05-07 21:02 59.65590 17.93089 108 ft 10 kts 75°
2026-05-07 21:02 59.65606 17.93215 107 ft 9 kts 76°
2026-05-07 21:03 59.65596 17.93296 107 ft 5 kts 140°
2026-05-07 21:03 59.65566 17.93316 110 ft 5 kts 164°
2026-05-07 21:03 59.65532 17.93335 111 ft 6 kts 165°
2026-05-07 21:03 59.65478 17.93342 111 ft 10 kts 179°
2026-05-07 21:04 59.65419 17.93363 111 ft 8 kts 166°
2026-05-07 21:04 59.65385 17.93390 111 ft 4 kts 129°
2026-05-07 21:04 59.65386 17.93439 111 ft 4 kts 75°
2026-05-07 21:04 59.65394 17.93501 111 ft 5 kts 75°
2026-05-07 21:05 59.65395 17.93508 111 ft 0 kts 76°